Temp
9 9 8 8 8 9 10 11 12 11 11 11 9 10 11 10 11 11 11 11 10 9 8 8 8 8 6 6 6 5 5 4 3 3 3 3 3 3 3 3 3 3 3
9 8 8 7 7 8 9 10 11 11 11 11 10 10 10 10 10 11 11 11 10 9 9 8 7 7 6 6 6 5 4 4 3 3 3 3 3 2 2 2 2 2 2
8 8 7 7 6 6 8 9 9 10 11 11 10 9 10 9 9 10 11 11 10 9 8 8 7 6 6 5 5 4 4 3 3 3 3 2 2 2 2 2 2 3 3
7 8 7 6 6 6 6 8 8 10 10 11 10 9 9 9 9 9 10 10 9 8 8 7 6 5 5 5 4 4 3 3 3 2 2 2 1 1 1 2 2 2 2
7 7 7 6 6 5 5 6 7 8 10 11 10 9 9 8 8 8 9 9 8 7 7 6 6 5 5 5 4 4 3 3 2 1 1 1 1 1 2 2 1 2 2
7 7 7 6 6 5 4 4 6 7 9 10 10 9 8 8 8 8 9 9 8 7 6 6 5 5 4 4 4 3 2 1 1 1 1 2 2 2 2 2 2 2 1
6 6 6 6 6 5 4 3 4 5 8 9 10 8 8 7 7 8 8 8 7 7 6 6 5 5 4 4 3 3 2 2 1 2 2 2 2 2 2 2 2 2 2
6 6 6 6 5 5 4 3 3 4 6 8 9 9 8 7 7 7 7 8 7 7 6 5 5 4 4 3 3 3 3 2 1 1 2 2 2 2 2 1 1 2 2
5 5 5 5 5 4 4 3 2 3 5 7 9 9 8 7 7 7 6 7 6 6 5 5 4 4 3 3 3 3 2 2 1 1 2 2 2 1 2 2 2 2 2
4 5 4 4 4 3 3 3 3 3 4 7 9 8 8 7 7 6 6 6 6 5 5 4 4 4 3 3 2 2 2 1 1 2 2 2 2 3 3 3 3 2 2
3 4 3 3 2 2 2 3 3 3 3 6 8 8 7 7 7 6 6 6 6 5 4 4 3 3 2 2 2 2 1 1 1 1 1 2 2 3 4 5 5 5 3
3 3 2 2 1 2 2 3 3 3 3 5 8 8 7 7 7 6 6 6 5 5 4 4 3 3 2 2 2 1 1 0 1 0 1 2 2 3 5 6 7 6 6
2 2 1 2 1 2 3 3 3 2 2 4 7 7 6 6 6 6 5 5 4 4 4 3 3 2 2 2 2 1 1 0 0 0 0 1 2 3 5 6 7 7 8
1 1 1 1 1 1 3 4 4 2 2 3 7 6 5 5 5 5 5 4 4 4 4 4 2 2 2 2 1 1 0 0 0 -0 0 1 2 4 6 6 7 7 7
0 0 0 0 0 1 2 4 4 2 2 3 6 6 5 5 5 6 6 5 5 4 4 3 1 1 1 1 1 0 1 0 -0 -0 0 1 2 4 6 6 7 7 7
-0 -0 0 -1 -0 0 1 2 2 2 2 4 6 6 5 6 6 5 5 5 4 4 4 2 1 0 1 1 0 0 1 -0 -1 -1 0 1 2 3 5 6 7 7 7
-1 -0 -1 -1 -1 -0 0 1 1 1 2 5 5 5 5 6 5 5 5 4 3 3 3 1 0 0 0 0 0 -0 0 -0 -1 -1 0 1 2 3 3 5 6 7 6
-1 -1 -1 -1 -1 -1 0 1 0 1 1 4 4 4 5 5 4 4 4 3 2 2 2 1 0 0 -0 -0 -0 -1 0 -1 -1 -1 0 1 1 2 3 4 5 6 7
-1 -1 -1 -1 -1 -1 0 -0 -0 -0 2 3 3 3 4 3 3 3 3 3 2 1 1 -0 -0 -0 -1 -1 -1 -1 -0 -1 -0 -0 -0 0 1 2 2 3 5 6 7
-1 -1 -2 -1 -1 -0 -0 -1 -1 -0 2 2 2 2 2 3 3 2 2 1 0 -0 -0 -1 -1 -1 -1 -1 -1 -1 -1 -1 -0 -1 -0 0 1 2 2 3 4 6 6
-1 -2 -1 -1 -1 -1 -1 -1 -1 -1 -0 1 1 1 2 3 2 2 1 0 -0 -0 -1 -1 -1 -1 -1 -1 -1 -1 -1 -1 -1 -1 -1 -0 0 1 2 2 3 5 6
-2 -2 -1 -1 -1 -1 -1 -1 -1 -1 -1 -1 -1 -1 -0 1 -0 -0 -0 -1 -1 -1 -1 -1 -1 -1 -2 -2 -2 -1 -1 -1 -1 -1 -2 -1 -0 1 2 2 3 4 5
-1 -1 -1 -1 -1 -1 -1 -1 -1 -1 -1 -1 -1 -1 -1 -1 -1 -1 -1 -1 -1 -1 -1 -1 -2 -2 -2 -2 -2 -2 -1 -1 -1 -1 -2 -2 -1 1 1 2 2 4 5
-1 -1 -1 -1 -1 -1 -0 -0 -1 -1 -1 -2 -2 -2 -2 -2 -2 -2 -2 -2 -2 -2 -2 -2 -2 -2 -2 -2 -2 -2 -2 -2 -1 -1 -2 -2 -2 0 1 1 2 3 4
-2 -2 -2 -2 -2 -2 -2 -2 -2 -2 -2 -2 -2 -2 -2 -2 -2 -2 -2 -2 -2 -2 -3 -3 -3 -3 -3 -3 -2 -2 -2 -2 -2 -2 -2 -3 -2 -1 0 1 2 3 3
-3 -3 -2 -2 -2 -2 -2 -2 -2 -2 -3 -3 -3 -3 -3 -3 -3 -3 -3 -3 -3 -3 -3 -3 -3 -3 -3 -3 -3 -2 -2 -2 -2 -2 -3 -3 -2 -1 -1 0 1 2 3
Height
1460 1455 1451 1446 1441 1435 1430 1428 1427 1429 1431 1431 1431 1438 1443 1447 1450 1454 1457 1462 1465 1470 1473 1476 1478 1482 1483 1485 1485 1486 1485 1486 1482 1480 1480 1479 1477 1476 1474 1472 1470 1468 1467
1455 1450 1446 1440 1436 1430 1425 1420 1421 1421 1423 1422 1423 1428 1434 1439 1443 1446 1449 1453 1457 1462 1467 1471 1474 1477 1479 1480 1480 1481 1480 1480 1479 1475 1473 1473 1471 1469 1466 1463 1461 1459 1458
1450 1444 1439 1435 1430 1424 1420 1415 1413 1414 1414 1415 1415 1419 1426 1431 1435 1440 1443 1446 1451 1456 1461 1465 1469 1472 1474 1475 1476 1476 1476 1476 1474 1471 1467 1467 1464 1462 1458 1454 1452 1449 1448
1443 1437 1431 1427 1422 1419 1413 1409 1406 1407 1407 1408 1408 1412 1419 1425 1429 1434 1437 1441 1446 1451 1456 1460 1464 1467 1469 1471 1472 1472 1471 1470 1468 1465 1462 1460 1458 1454 1451 1446 1441 1440 1438
1436 1431 1425 1420 1414 1411 1406 1401 1401 1400 1401 1401 1402 1406 1413 1419 1423 1428 1431 1436 1441 1446 1451 1456 1460 1462 1464 1466 1466 1466 1465 1464 1461 1459 1457 1454 1451 1447 1443 1439 1433 1429 1424
1430 1423 1417 1412 1408 1402 1401 1395 1391 1393 1394 1395 1395 1400 1406 1413 1418 1423 1428 1431 1437 1442 1447 1452 1455 1458 1459 1460 1461 1459 1460 1458 1456 1455 1453 1449 1444 1440 1435 1432 1426 1419 1406
1423 1416 1410 1405 1399 1395 1393 1389 1384 1385 1388 1390 1390 1395 1400 1408 1414 1419 1424 1428 1433 1438 1444 1448 1451 1454 1455 1456 1456 1455 1455 1455 1453 1452 1448 1445 1439 1435 1430 1421 1415 1408 1400
1416 1410 1404 1399 1394 1390 1389 1383 1379 1380 1381 1383 1385 1390 1395 1403 1410 1416 1420 1423 1429 1435 1440 1444 1447 1450 1450 1451 1451 1450 1450 1448 1447 1445 1443 1438 1432 1426 1420 1411 1402 1393 1388
1408 1403 1397 1392 1388 1386 1381 1376 1374 1373 1372 1376 1379 1384 1390 1398 1406 1412 1416 1420 1425 1430 1436 1440 1443 1445 1445 1446 1445 1446 1444 1442 1441 1439 1436 1430 1423 1417 1409 1398 1391 1385 1376
1401 1395 1390 1385 1379 1375 1376 1370 1367 1364 1364 1371 1374 1379 1385 1393 1402 1409 1413 1417 1421 1426 1432 1435 1438 1440 1441 1442 1441 1442 1438 1437 1435 1432 1427 1421 1416 1406 1397 1391 1383 1376 1367
1394 1387 1381 1377 1372 1364 1362 1361 1357 1357 1357 1362 1369 1374 1380 1388 1397 1404 1409 1413 1418 1423 1427 1431 1434 1435 1437 1438 1438 1437 1435 1433 1431 1428 1421 1415 1408 1398 1390 1385 1375 1367 1357
1384 1379 1373 1366 1363 1356 1354 1350 1350 1346 1352 1357 1365 1371 1377 1383 1392 1400 1406 1411 1416 1419 1423 1427 1429 1432 1433 1435 1434 1434 1432 1431 1427 1424 1417 1411 1403 1393 1387 1379 1369 1358 1353
1373 1369 1363 1356 1350 1343 1337 1336 1336 1343 1348 1354 1359 1365 1372 1380 1388 1396 1403 1408 1414 1417 1419 1422 1425 1428 1430 1431 1431 1431 1429 1427 1424 1421 1414 1408 1401 1393 1386 1377 1365 1358 1344
1362 1357 1352 1347 1341 1336 1331 1327 1331 1337 1343 1347 1353 1360 1368 1377 1384 1391 1398 1405 1409 1412 1416 1420 1422 1424 1426 1427 1427 1428 1427 1425 1422 1419 1413 1407 1400 1392 1386 1380 1370 1358 1356
1354 1347 1341 1338 1332 1330 1328 1326 1328 1332 1338 1345 1350 1356 1362 1372 1379 1385 1392 1399 1404 1409 1413 1416 1418 1422 1424 1425 1425 1425 1424 1422 1420 1417 1412 1406 1399 1393 1387 1382 1375 1371 1367
1345 1339 1334 1329 1326 1324 1324 1325 1324 1327 1335 1342 1348 1355 1361 1373 1378 1386 1392 1397 1402 1406 1407 1412 1417 1420 1422 1423 1422 1422 1420 1419 1418 1415 1411 1407 1401 1396 1390 1386 1383 1381 1377
1337 1333 1326 1321 1319 1318 1318 1320 1324 1328 1335 1343 1349 1355 1363 1370 1379 1384 1389 1395 1400 1402 1405 1410 1414 1417 1420 1421 1420 1420 1418 1417 1416 1415 1412 1408 1403 1400 1395 1392 1390 1388 1387
1328 1326 1322 1314 1314 1314 1314 1318 1322 1327 1335 1341 1349 1356 1364 1371 1378 1383 1387 1392 1397 1399 1403 1408 1412 1415 1417 1419 1418 1418 1417 1415 1416 1415 1412 1409 1405 1402 1398 1394 1392 1392 1394
1320 1318 1314 1310 1309 1311 1315 1318 1324 1330 1337 1341 1349 1358 1366 1373 1378 1383 1387 1390 1394 1397 1402 1406 1410 1413 1415 1417 1416 1417 1416 1416 1416 1415 1413 1410 1408 1404 1402 1400 1398 1397 1399
1316 1313 1309 1307 1308 1310 1314 1321 1328 1334 1340 1346 1353 1359 1365 1370 1375 1380 1384 1389 1393 1398 1401 1405 1408 1411 1413 1414 1415 1415 1416 1415 1416 1415 1413 1410 1408 1407 1405 1403 1401 1401 1403
1314 1313 1311 1310 1312 1316 1320 1327 1333 1340 1348 1353 1359 1363 1366 1369 1374 1377 1382 1388 1394 1398 1401 1404 1406 1409 1411 1412 1414 1414 1415 1414 1415 1415 1413 1411 1410 1407 1406 1404 1403 1403 1405
1317 1316 1316 1316 1320 1324 1328 1335 1340 1348 1356 1361 1364 1366 1368 1370 1375 1378 1383 1390 1394 1397 1400 1402 1405 1407 1409 1411 1412 1413 1414 1413 1413 1413 1413 1411 1409 1409 1407 1407 1404 1404 1405
1322 1322 1322 1325 1330 1334 1340 1346 1352 1355 1358 1362 1363 1365 1370 1373 1376 1381 1386 1391 1394 1396 1398 1401 1404 1405 1407 1409 1411 1412 1412 1412 1411 1410 1411 1411 1408 1408 1406 1406 1406 1405 1404
1330 1331 1332 1334 1337 1341 1345 1348 1350 1354 1359 1363 1367 1370 1371 1375 1380 1384 1387 1389 1392 1395 1398 1400 1402 1404 1405 1407 1408 1409 1410 1410 1410 1408 1408 1408 1407 1405 1406 1405 1406 1405 1404
1336 1338 1341 1341 1343 1346 1349 1353 1356 1360 1363 1366 1369 1371 1375 1378 1381 1383 1385 1388 1391 1394 1396 1399 1401 1403 1404 1404 1404 1406 1407 1407 1408 1408 1406 1405 1405 1406 1405 1404 1404 1404 1403
1344 1345 1346 1347 1350 1353 1355 1357 1360 1363 1366 1369 1371 1374 1376 1378 1380 1383 1386 1388 1390 1393 1395 1398 1400 1401 1402 1401 1402 1403 1404 1404 1404 1404 1404 1404 1403 1401 1401 1401 1402 1401 1402
Wind_Speed
33 32 32 33 36 34 30 28 37 41 43 44 43 45 45 47 46 41 38 34 31 29 26 24 21 18 18 18 19 20 21 21 25 28 26 25 28 29 28 30 33 31 33
29 33 41 33 32 32 30 29 28 34 38 43 44 43 44 47 47 44 39 35 33 30 26 25 23 22 21 19 19 19 19 18 21 27 28 32 28 30 30 34 29 30 31
34 34 33 28 30 28 31 27 29 31 36 41 44 45 44 47 48 44 39 34 32 29 27 25 22 21 19 17 18 17 18 20 24 27 30 29 32 30 33 29 33 30 26
36 37 31 29 30 33 29 27 27 30 32 37 42 43 42 45 48 45 39 33 30 27 26 24 22 20 18 19 18 19 20 22 25 27 31 31 31 30 30 33 36 32 36
38 36 36 35 33 31 31 26 28 31 27 36 40 41 40 45 47 45 40 34 31 27 24 21 20 21 20 20 19 22 24 25 25 26 27 30 29 31 37 38 38 42 47
37 40 39 36 29 32 35 25 23 29 32 29 38 41 39 43 46 44 38 34 30 28 25 25 22 17 15 16 17 15 17 20 22 24 26 30 34 37 36 35 39 49 52
39 41 42 37 31 28 33 35 25 24 29 27 36 38 39 42 42 41 38 33 31 28 26 21 18 17 13 14 17 18 17 18 17 21 27 32 34 35 39 47 46 42 46
37 42 39 33 28 35 35 35 29 27 27 27 35 38 39 40 39 39 38 33 29 27 24 20 16 15 17 18 20 20 20 17 15 19 26 30 34 39 38 42 46 45 41
38 40 33 37 43 40 32 33 33 31 24 28 33 38 39 39 38 39 38 32 28 24 21 18 18 18 17 15 17 17 16 16 18 23 27 30 28 32 37 36 37 36 37
37 35 39 46 46 43 36 32 34 33 28 24 32 37 38 39 37 37 36 33 28 24 19 17 16 14 12 11 13 14 16 17 23 28 26 28 30 35 34 31 33 35 33
37 39 40 42 49 43 37 32 29 31 29 23 31 36 39 38 37 35 34 34 29 22 17 13 10 9 11 11 11 13 14 18 23 21 28 29 34 37 32 31 29 32 34
37 37 41 46 46 42 36 31 28 25 30 24 35 36 39 39 36 34 32 28 22 19 16 14 13 12 12 12 11 12 12 18 17 21 30 28 36 37 31 26 32 27 27
37 38 41 45 47 40 36 31 25 30 34 28 37 39 40 38 33 33 33 29 26 23 20 18 15 13 11 13 11 8 12 14 16 21 26 29 34 36 29 28 33 25 16
42 40 42 44 43 33 30 26 28 33 36 30 36 40 40 37 34 35 34 31 26 22 20 16 14 12 11 6 3 6 11 13 14 21 23 27 32 32 26 29 31 19 13
39 42 41 41 35 26 19 21 27 34 31 32 39 43 42 39 36 35 34 32 25 21 17 12 8 5 3 2 3 7 10 10 14 19 19 27 30 29 25 28 28 15 22
38 39 38 35 27 24 16 16 17 28 29 28 37 42 41 37 31 30 28 22 20 18 12 11 12 9 5 4 6 6 7 9 13 14 18 24 27 28 25 25 21 12 19
39 32 31 30 22 24 18 19 23 21 27 30 36 40 39 33 31 29 25 21 17 14 11 11 10 8 7 8 6 3 7 12 13 11 15 22 23 25 23 22 15 16 14
26 27 24 23 18 18 12 20 25 24 31 37 37 37 34 30 28 26 24 20 18 14 12 12 10 9 8 6 3 3 7 11 11 11 13 19 20 23 23 21 18 13 16
29 20 20 19 19 16 17 22 26 33 38 42 39 35 32 29 27 23 19 15 13 11 10 13 12 9 8 6 3 3 6 8 9 10 12 17 18 20 20 18 15 11 10
13 12 6 2 10 19 33 34 34 37 41 39 38 36 33 30 26 22 16 15 12 9 9 10 11 9 7 5 2 2 3 4 7 8 11 15 16 17 19 17 14 9 10
2 3 15 19 23 25 32 36 38 37 33 30 29 27 26 23 20 16 16 16 16 14 12 9 10 8 6 4 2 2 2 4 7 8 9 12 15 15 16 16 12 6 5
8 16 25 35 32 32 34 33 34 33 31 29 26 23 19 17 17 14 13 14 16 13 12 10 9 7 4 2 1 1 1 2 7 10 9 12 13 14 13 15 12 5 2
16 18 24 26 27 28 29 29 29 28 24 23 24 24 22 19 16 16 14 14 14 13 12 10 9 6 4 2 2 2 3 4 8 10 8 12 13 12 11 13 14 8 4
19 20 21 23 23 23 21 18 17 18 16 15 16 18 15 13 15 15 16 13 10 10 10 8 6 7 4 3 3 4 5 6 8 12 14 13 14 11 10 11 11 10 6
24 22 21 20 19 20 21 21 20 20 20 19 17 17 16 15 15 14 14 12 11 10 8 7 6 6 5 5 5 6 8 9 10 10 17 14 15 12 10 10 11 11 9
22 20 18 17 17 17 17 17 16 15 16 14 12 11 11 11 11 11 11 10 11 11 9 7 6 6 4 4 5 6 7 9 10 11 12 14 14 12 8 11 11 10 11
Wind_Direction
313 314 317 304 316 309 291 281 255 240 239 234 223 226 230 229 226 222 224 225 224 224 225 230 235 238 239 243 254 266 271 272 275 287 295 298 293 298 297 291 290 284 284
306 306 311 310 304 307 302 279 268 250 245 235 222 221 225 226 227 221 220 220 222 221 222 224 229 233 239 249 262 273 278 282 283 287 290 293 296 299 295 300 296 295 292
317 311 307 308 314 311 305 292 280 264 244 234 224 220 221 223 224 221 220 220 219 220 223 227 232 235 242 252 267 274 275 274 277 283 291 291 295 292 299 300 298 297 295
310 311 302 308 308 307 296 287 291 267 249 234 225 218 222 223 222 219 217 215 216 216 218 224 229 233 242 252 259 263 267 270 273 277 285 293 299 301 302 307 308 302 295
314 309 305 303 307 306 305 285 274 281 260 235 224 216 220 221 219 216 214 213 211 210 215 222 226 233 242 253 255 262 269 274 281 291 299 303 304 303 310 311 301 301 300
308 306 305 305 301 319 309 289 262 280 256 246 221 213 215 216 216 214 214 210 206 209 212 216 225 238 246 261 268 275 287 287 292 297 304 300 300 306 309 305 296 294 295
304 302 305 303 303 310 310 309 278 253 266 253 221 210 214 211 212 213 211 208 206 207 212 218 222 233 247 258 264 276 273 273 282 290 291 296 303 300 297 297 297 294 290
304 301 304 299 301 309 303 296 294 245 268 246 223 209 207 206 210 210 204 206 206 208 211 217 221 220 231 248 266 277 279 289 302 304 297 295 291 295 298 297 297 295 293
305 301 298 298 300 305 297 295 288 254 238 243 224 205 204 205 206 208 203 202 199 201 205 210 222 234 244 252 272 282 290 300 300 295 297 301 312 313 310 305 302 302 300
305 298 300 303 305 301 294 288 275 256 223 239 218 204 202 202 205 207 205 200 195 198 204 217 232 246 258 268 276 279 295 306 308 316 317 325 324 324 327 325 323 313 304
305 300 302 297 311 304 297 286 271 248 216 228 214 202 198 205 206 207 205 200 201 199 200 213 231 243 257 279 291 295 305 309 313 322 321 325 334 337 334 332 333 323 308
301 301 300 302 312 304 297 284 260 248 222 224 203 195 196 204 208 204 197 193 190 190 190 198 214 233 257 279 291 299 301 310 323 322 323 337 339 342 336 341 332 338 311
301 304 301 306 313 310 302 279 253 238 214 214 195 191 188 195 198 200 188 184 186 188 191 203 219 233 254 273 285 292 305 318 325 322 329 337 341 344 342 348 335 347 7
302 304 304 308 311 307 299 265 234 222 208 203 189 182 183 184 190 188 185 188 194 197 205 212 227 246 250 260 297 338 316 325 332 321 332 336 344 348 353 352 354 36 84
302 302 304 307 310 300 292 241 220 210 196 199 189 181 179 182 190 186 187 190 197 202 205 205 198 200 231 225 276 287 305 333 325 329 342 342 348 350 358 6 21 79 121
298 300 299 302 296 286 273 235 209 202 189 192 192 183 185 198 190 188 186 188 193 195 189 184 187 206 207 231 261 297 318 332 331 346 345 344 352 354 2 17 46 89 124
296 294 296 300 287 277 265 221 198 183 177 188 179 179 190 191 185 180 179 179 185 185 193 189 192 177 190 227 261 315 317 322 324 355 348 346 353 357 9 18 42 80 113
293 299 291 289 274 276 222 193 173 162 164 163 168 176 183 179 174 172 176 182 185 193 197 191 184 187 201 217 247 332 346 359 4 357 346 347 355 360 8 16 33 75 130
295 296 291 279 275 210 171 159 151 145 152 152 156 162 166 166 170 174 177 180 179 170 175 183 184 182 186 203 239 8 37 12 358 357 345 347 356 2 7 14 32 71 110
299 304 315 199 151 152 155 135 136 142 149 150 156 156 159 163 166 169 166 162 150 158 164 172 168 169 191 207 224 60 55 17 351 350 341 343 354 359 0 9 22 57 100
345 105 100 120 125 125 153 152 147 147 154 152 155 158 159 164 158 158 158 159 162 176 185 178 163 172 194 219 209 107 67 356 331 332 325 333 346 356 353 359 8 19 89
125 123 116 113 109 113 118 126 134 148 160 162 155 148 140 138 141 142 149 161 165 166 163 162 168 170 170 184 237 214 252 292 304 320 337 333 332 344 350 345 355 357 150
129 118 119 127 127 120 126 132 138 141 141 142 142 140 144 147 143 152 160 165 171 172 173 174 170 171 180 176 216 260 299 294 301 317 328 322 323 336 341 340 340 332 221
128 125 122 121 124 129 136 134 129 131 135 137 131 137 135 144 153 157 165 164 164 167 165 164 173 182 195 205 198 239 255 275 293 308 310 323 320 322 330 330 323 323 255
101 102 106 107 109 111 112 116 121 129 132 136 140 146 153 156 161 165 171 179 174 165 168 177 197 217 213 196 219 250 266 288 303 304 308 314 314 309 313 321 311 313 269
75 75 83 95 103 109 115 121 123 127 132 138 143 148 150 142 146 158 175 183 189 182 183 203 182 160 203 224 253 267 290 304 314 318 307 308 311 308 308 305 305 295 279